Nellis AFB, NV

3:11 AM PST on December 10, 2019 (GMT -0800)
Nellis Air Force Base

Weather History for KLSV - October, 2019

Change the Weather History Date:

Thursday, October 17, 2019

  Actual Average Record
Temperature  
Mean Temperature 72 °F -  
Max Temperature 85 °F 80 °F 91 °F (2003)
Min Temperature 60 °F 53 °F 44 °F (2013)
Cooling Degree Days 7    
Growing Degree Days 22 (Base 50)    
Moisture  
Dew Point 28 °F    
Average Humidity 20    
Maximum Humidity 27    
Minimum Humidity 13    
Precipitation  
Precipitation 0.00 in - - ()
Sea Level Pressure  
Sea Level Pressure 29.60 in    
Wind  
Wind Speed 8 mph (South)    
Max Wind Speed 30 mph    
Max Gust Speed 38 mph    
Visibility 10 miles    
Events      
Averages and records for this station are not official NWS values.
T = Trace of Precipitation, MM = Missing Value Source: NWS Daily Summary

Daily Weather History Graph

Daily Weather History Graph

Search for Another Location

Airport or City:

Astronomy

Oct. 17, 2019 Rise Set
Actual Time 6:48 AM PDT 6:01 PM PDT
Civil Twilight 6:22 AM PDT 6:27 PM PDT
Nautical Twilight 5:52 AM PDT 6:57 PM PDT
Astronomical Twilight 5:23 AM PDT 7:27 PM PDT
Moon 8:42 PM PDT (10/17) 10:19 AM PDT (10/17)
Length of Visible Light 12h 04m
Length of Day
11h 12m
Waning Gibbous, 86% of the Moon is Illuminated
Oct 17
Waning Gibbous
Oct 21
Last Quarter
Oct 27
New
Nov 4
First Quarter
Nov 12
Full

Hourly Weather History & Observations

Time (PDT) Temp. Dew Point Humidity Pressure Visibility Wind Dir Wind Speed Gust Speed Precip Events Conditions
12:55 AM 64.4 °F 19.4 °F 18% 29.71 in 10.0 mi NNE 2.3 mph - N/A   Partly Cloudy
1:55 AM 63.5 °F 21.7 °F 20% 29.73 in 10.0 mi Calm Calm - N/A   Clear
2:55 AM 66.2 °F 23.0 °F 19% 29.70 in 10.0 mi West 2.3 mph - N/A   Clear
3:55 AM 60.4 °F 22.5 °F 23% 29.70 in 10.0 mi Calm Calm - N/A   Partly Cloudy
4:55 AM 60.6 °F 23.5 °F 24% 29.69 in 10.0 mi North 5.8 mph - N/A   Scattered Clouds
5:55 AM 60.1 °F 24.1 °F 25% 29.68 in 10.0 mi NNE 3.5 mph - N/A   Mostly Cloudy
6:55 AM 61.3 °F 27.1 °F 27% 29.68 in 10.0 mi Calm Calm - N/A   Mostly Cloudy
7:58 AM 61.2 °F 26.1 °F 26% 29.68 in 10.0 mi Calm Calm - N/A   Mostly Cloudy
8:58 AM 69.6 °F 29.1 °F 22% 29.65 in 10.0 mi NW 5.8 mph - N/A   Mostly Cloudy
9:58 AM 76.5 °F 32.4 °F 20% 29.63 in 10.0 mi SSE 3.5 mph - N/A   Scattered Clouds
10:58 AM 79.7 °F 35.1 °F 20% 29.64 in 10.0 mi SSE 20.7 mph 26.5 mph N/A   Scattered Clouds
11:58 AM 81.0 °F 34.9 °F 19% 29.62 in 10.0 mi South 16.1 mph - N/A   Scattered Clouds
12:58 PM 83.3 °F 32.4 °F 16% 29.62 in 10.0 mi South 20.7 mph 28.8 mph N/A   Clear
1:58 PM 84.7 °F 30.2 °F 14% 29.53 in 10.0 mi South 23.0 mph - N/A   Clear
2:58 PM 84.9 °F 28.6 °F 13% 29.51 in 10.0 mi South 21.9 mph 34.5 mph N/A   Clear
3:58 PM 83.8 °F 29.5 °F 14% 29.49 in 10.0 mi South 29.9 mph 38.0 mph N/A   Clear
4:58 PM 82.4 °F 30.0 °F 15% 29.48 in 10.0 mi SSE 18.4 mph 25.3 mph N/A   Clear
5:58 PM 79.9 °F 29.7 °F 16% 29.46 in 10.0 mi South 26.5 mph 35.7 mph N/A   Clear
6:58 PM 77.5 °F 29.3 °F 17% 29.47 in 10.0 mi South 25.3 mph 32.2 mph N/A   Clear
7:58 PM 75.4 °F 28.9 °F 18% 29.49 in 10.0 mi South 20.7 mph - N/A   Partly Cloudy
8:58 PM 73.2 °F 29.7 °F 20% 29.51 in 10.0 mi SSE 18.4 mph - N/A   Partly Cloudy
9:58 PM 71.6 °F 30.7 °F 22% 29.54 in 10.0 mi South 12.7 mph 17.3 mph N/A   Clear
10:58 PM 73.4 °F 28.6 °F 19% 29.56 in 10.0 mi West 9.2 mph 16.1 mph N/A   Partly Cloudy
11:58 PM 68.0 °F 29.8 °F 24% 29.60 in 10.0 mi WSW 3.5 mph - N/A   Partly Cloudy